,,Stat5,,Stat1,,Stat2,,Stat3,,Stat4,,Wind1,,Wind1,
time,status,PA1M_AVG,status,PR1M_SUM,status,RH1M_AVG,status,SR1M_AVG,status,TA1M_AVG,status,W1dAve1m,status,W1sAve1m,
2001-10-12, 00:00:00,VALID,919.622,VALID,0,VALID,95.2727,VALID,0.0169808,VALID,18.8807,VALID,126,VALID,0.10766,
2001-10-12, 00:01:00,VALID,919.622,VALID,0,VALID,94.2679,VALID,0.0169808,VALID,18.8507,VALID,113,VALID,0.328536,
2001-10-12, 00:02:00,VALID,919.596,VALID,0,VALID,94.0555,VALID,0,VALID,18.7732,VALID,75,VALID,0.638158,
2001-10-12, 00:03:00,VALID,919.584,VALID,0,VALID,94.4433,VALID,0,VALID,18.7451,VALID,79,VALID,0.399306,
2001-10-12, 00:04:00,VALID,919.582,VALID,0,VALID,94.4713,VALID,0,VALID,18.7089,VALID,78,VALID,0.26647,
2001-10-12, 00:05:00,VALID,919.568,VALID,0,VALID,94.5489,VALID,0,VALID,18.6507,VALID,75,VALID,0.375,
2001-10-12, 00:06:00,VALID,919.539,VALID,0,VALID,95.083,VALID,0.0169808,VALID,18.6378,VALID,72,VALID,0.327324,
2001-10-12, 00:07:00,VALID,919.539,VALID,0,VALID,94.8553,VALID,0.0169808,VALID,18.6055,VALID,73,VALID,0.0303571,
2001-10-12, 00:08:00,VALID,919.538,VALID,0,VALID,94.8617,VALID,0.0169808,VALID,18.5541,VALID,73,VALID,0.185937,
2001-10-12, 00:09:00,VALID,919.534,VALID,0,VALID,95.9159,VALID,0.0169808,VALID,18.5836,VALID,37,VALID,0.43236,
2001-10-12, 00:10:00,VALID,919.539,VALID,0,VALID,96.2897,VALID,0,VALID,18.6667,VALID,45,VALID,0.402244,
2001-10-12, 00:11:00,VALID,919.542,VALID,0,VALID,95.982,VALID,0,VALID,18.6895,VALID,46,VALID,0.353413,
2001-10-12, 00:12:00,VALID,919.54,VALID,0,VALID,95.7175,VALID,0.0169808,VALID,18.6994,VALID,41,VALID,0.483594,
2001-10-12, 00:13:00,VALID,919.532,VALID,0,VALID,96.2109,VALID,0.0169808,VALID,18.7479,VALID,31,VALID,0.524877,
2001-10-12, 00:14:00,VALID,919.517,VALID,0,VALID,95.3614,VALID,0.0169808,VALID,18.7347,VALID,22,VALID,0.720954,
2001-10-12, 00:15:00,VALID,919.52,VALID,0,VALID,95.294,VALID,0.0169808,VALID,18.7029,VALID,15,VALID,0.775493,
2001-10-12, 00:16:00,VALID,919.492,VALID,0,VALID,95.4454,VALID,0.0169808,VALID,18.6897,VALID,9,VALID,0.702148,
2001-10-12, 00:17:00,VALID,919.477,VALID,0,VALID,95.5191,VALID,0.0339617,VALID,18.6957,VALID,6,VALID,0.588199,
2001-10-12, 00:18:00,VALID,919.458,VALID,0,VALID,95.9171,VALID,0,VALID,18.725,VALID,7,VALID,0.856086,
2001-10-12, 00:19:00,VALID,919.432,VALID,0,VALID,96.2007,VALID,0,VALID,18.7961,VALID,8,VALID,0.688528,
2001-10-12, 00:20:00,VALID,919.408,VALID,0,VALID,96.0634,VALID,0.0169808,VALID,18.8738,VALID,356,VALID,0.453516,
2001-10-12, 00:21:00,VALID,919.41,VALID,0,VALID,95.7811,VALID,0.0339617,VALID,18.8863,VALID,354,VALID,0.0148026,
2001-10-12, 00:22:00,VALID,919.4,VALID,0,VALID,95.4657,VALID,0.0169808,VALID,18.9031,VALID,354,VALID,0,
2001-10-12, 00:23:00,VALID,919.399,VALID,0,VALID,95.0944,VALID,0,VALID,18.8512,VALID,354,VALID,0,
2001-10-12, 00:24:00,VALID,919.407,VALID,0,VALID,95.191,VALID,0.0169808,VALID,18.8452,VALID,354,VALID,0,
2001-10-12, 00:25:00,VALID,919.396,VALID,0,VALID,95.2673,VALID,0.0339617,VALID,18.8221,VALID,356,VALID,0.175164,
2001-10-12, 00:26:00,VALID,919.386,VALID,0,VALID,95.2368,VALID,0.0169808,VALID,18.7926,VALID,1,VALID,0.553865,
2001-10-12, 00:27:00,VALID,919.387,VALID,0,VALID,94.4586,VALID,0.0169808,VALID,18.7061,VALID,2,VALID,0.417558,
2001-10-12, 00:28:00,VALID,919.371,VALID,0,VALID,95.1758,VALID,0,VALID,18.6547,VALID,352,VALID,0.264062,
2001-10-12, 00:29:00,VALID,919.372,VALID,0,VALID,95.453,VALID,0.0509425,VALID,18.6609,VALID,327,VALID,0.0078125,
2001-10-12, 00:30:00,VALID,919.348,VALID,0,VALID,95.5852,VALID,0.0169808,VALID,18.654,VALID,327,VALID,0,
2001-10-12, 00:31:00,VALID,919.315,VALID,0,VALID,95.7467,VALID,0,VALID,18.6872,VALID,327,VALID,0,
2001-10-12, 00:32:00,VALID,919.288,VALID,0,VALID,95.5776,VALID,0,VALID,18.6909,VALID,350,VALID,0.181836,
2001-10-12, 00:33:00,VALID,919.262,VALID,0,VALID,95.2826,VALID,0,VALID,18.6132,VALID,7,VALID,0.847039,
2001-10-12, 00:34:00,VALID,919.235,VALID,0,VALID,96.4016,VALID,0.0169808,VALID,18.7163,VALID,312,VALID,0.184416,
2001-10-12, 00:35:00,VALID,919.246,VALID,0,VALID,96.2109,VALID,0,VALID,18.7779,VALID,311,VALID,0,
2001-10-12, 00:36:00,VALID,919.243,VALID,0,VALID,96.3024,VALID,0,VALID,18.8263,VALID,311,VALID,0,
2001-10-12, 00:37:00,VALID,919.224,VALID,0,VALID,96.3279,VALID,0,VALID,18.8909,VALID,318,VALID,0.32648,
2001-10-12, 00:38:00,VALID,919.198,VALID,0,VALID,94.2602,VALID,-0.0169808,VALID,18.7483,VALID,18,VALID,0.426883,
2001-10-12, 00:39:00,VALID,919.173,VALID,0,VALID,94.3314,VALID,0.0169808,VALID,18.6162,VALID,24,VALID,0.23787,
2001-10-12, 00:40:00,VALID,919.152,VALID,0,VALID,94.8719,VALID,0,VALID,18.5809,VALID,27,VALID,0,
2001-10-12, 00:41:00,VALID,919.133,VALID,0,VALID,95.6781,VALID,0.0169808,VALID,18.6,VALID,27,VALID,0,
2001-10-12, 00:42:00,VALID,919.094,VALID,0,VALID,95.9476,VALID,0,VALID,18.6217,VALID,27,VALID,0,
2001-10-12, 00:43:00,VALID,919.081,VALID,0,VALID,96.0328,VALID,0,VALID,18.6284,VALID,27,VALID,0,
2001-10-12, 00:44:00,VALID,919.064,VALID,0,VALID,96.4932,VALID,0.0339617,VALID,18.6544,VALID,27,VALID,0,
2001-10-12, 00:45:00,VALID,919.04,VALID,0,VALID,95.9248,VALID,0,VALID,18.6678,VALID,43,VALID,0,
2001-10-12, 00:46:00,VALID,919.022,VALID,0,VALID,95.3309,VALID,0.0169808,VALID,18.5548,VALID,46,VALID,0,
2001-10-12, 00:47:00,VALID,919.001,VALID,0,VALID,96.0964,VALID,0,VALID,18.5672,VALID,44,VALID,0.0939556,
2001-10-12, 00:48:00,VALID,918.969,VALID,0,VALID,96.2503,VALID,0.0169808,VALID,18.6293,VALID,51,VALID,0.524219,
2001-10-12, 00:49:00,VALID,918.952,VALID,0,VALID,95.7353,VALID,0.0169808,VALID,18.5735,VALID,51,VALID,0.0244655,
2001-10-12, 00:50:00,VALID,918.935,VALID,0,VALID,95.7595,VALID,0.0169808,VALID,18.5543,VALID,49,VALID,0.0810033,
2001-10-12, 00:51:00,VALID,918.899,VALID,0,VALID,95.9362,VALID,0,VALID,18.561,VALID,36,VALID,0.276316,
2001-10-12, 00:52:00,VALID,918.881,VALID,0,VALID,96.2236,VALID,-0.0339617,VALID,18.5841,VALID,35,VALID,0.204297,
2001-10-12, 00:53:00,VALID,918.857,VALID,0,VALID,96.6229,VALID,0.0169808,VALID,18.636,VALID,35,VALID,0.0773026,
2001-10-12, 00:54:00,VALID,918.837,VALID,0,VALID,96.8518,VALID,0,VALID,18.6616,VALID,35,VALID,0.176683,
2001-10-12, 00:55:00,VALID,918.814,VALID,0,VALID,96.8912,VALID,0,VALID,18.6743,VALID,35,VALID,0.0174753,
2001-10-12, 00:56:00,VALID,918.797,VALID,0,VALID,96.7907,VALID,0,VALID,18.6842,VALID,35,VALID,0,
2001-10-12, 00:57:00,VALID,918.789,VALID,0,VALID,96.7386,VALID,0,VALID,18.6646,VALID,35,VALID,0,
2001-10-12, 00:58:00,VALID,918.779,VALID,0,VALID,96.6941,VALID,0.0169808,VALID,18.6586,VALID,36,VALID,0.0748355,
2001-10-12, 00:59:00,VALID,918.771,VALID,0,VALID,96.9382,VALID,0,VALID,18.6681,VALID,41,VALID,0,
2001-10-12, 01:00:00,VALID,918.743,VALID,0,VALID,97.0489,VALID,0,VALID,18.6971,VALID,42,VALID,0.000976563,
2001-10-12, 01:01:00,VALID,918.741,VALID,0,VALID,97.0679,VALID,0,VALID,18.7165,VALID,42,VALID,0,
2001-10-12, 01:02:00,VALID,918.71,VALID,0,VALID,96.9052,VALID,0,VALID,18.713,VALID,42,VALID,0,
2001-10-12, 01:03:00,VALID,918.693,VALID,0,VALID,96.7678,VALID,0.0169808,VALID,18.68,VALID,42,VALID,0,
2001-10-12, 01:04:00,VALID,918.669,VALID,0,VALID,96.9192,VALID,0,VALID,18.7098,VALID,38,VALID,0.0078125,
2001-10-12, 01:05:00,VALID,918.642,VALID,0,VALID,97.0896,VALID,0.0169808,VALID,18.7553,VALID,14,VALID,0.317229,
2001-10-12, 01:06:00,VALID,918.626,VALID,0,VALID,96.7551,VALID,-0.0169808,VALID,18.755,VALID,354,VALID,0.227179,
2001-10-12, 01:07:00,VALID,918.611,VALID,0,VALID,97.1633,VALID,-0.0169808,VALID,18.8263,VALID,9,VALID,0.191406,
2001-10-12, 01:08:00,VALID,918.583,VALID,0,VALID,97.3121,VALID,0,VALID,18.9101,VALID,346,VALID,0.173828,
2001-10-12, 01:09:00,VALID,918.582,VALID,0,VALID,97.3986,VALID,0,VALID,18.9751,VALID,340,VALID,0.0106908,
2001-10-12, 01:10:00,VALID,918.571,VALID,0,VALID,97.2714,VALID,0,VALID,18.9975,VALID,338,VALID,0.00620994,
2001-10-12, 01:11:00,VALID,918.569,VALID,0,VALID,97.1608,VALID,0,VALID,19.0176,VALID,359,VALID,0.496711,
2001-10-12, 01:12:00,VALID,918.563,VALID,0,VALID,97.0603,VALID,-0.0169808,VALID,19.0328,VALID,10,VALID,0.241797,
2001-10-12, 01:13:00,VALID,918.553,VALID,0,VALID,96.8963,VALID,0,VALID,19.036,VALID,350,VALID,0.309622,
2001-10-12, 01:14:00,VALID,918.551,VALID,0,VALID,96.5809,VALID,0.0169808,VALID,19.0169,VALID,15,VALID,0.327303,
2001-10-12, 01:15:00,VALID,918.53,VALID,0,VALID,96.2172,VALID,0,VALID,18.9814,VALID,350,VALID,0.39227,
2001-10-12, 01:16:00,VALID,918.503,VALID,0,VALID,96.324,VALID,0,VALID,18.9841,VALID,358,VALID,0.441406,
2001-10-12, 01:17:00,VALID,918.494,VALID,0,VALID,96.2058,VALID,0,VALID,18.9751,VALID,357,VALID,0.00493421,
2001-10-12, 01:18:00,VALID,918.483,VALID,0,VALID,96.1778,VALID,0.0169808,VALID,18.9587,VALID,357,VALID,0.163061,
2001-10-12, 01:19:00,VALID,918.469,VALID,0,VALID,96.4143,VALID,0,VALID,18.9617,VALID,357,VALID,0,
2001-10-12, 01:20:00,VALID,918.453,VALID,0,VALID,95.9871,VALID,0,VALID,18.92,VALID,3,VALID,0,
2001-10-12, 01:21:00,VALID,918.455,VALID,0,VALID,96.2757,VALID,0,VALID,18.8877,VALID,2,VALID,0.535979,
2001-10-12, 01:22:00,VALID,918.435,VALID,0,VALID,96.5211,VALID,0,VALID,18.8939,VALID,8,VALID,0.588405,
2001-10-12, 01:23:00,VALID,918.443,VALID,0,VALID,96.4474,VALID,0,VALID,18.8745,VALID,4,VALID,0.681538,
2001-10-12, 01:24:00,VALID,918.461,VALID,0,VALID,96.202,VALID,0.0169808,VALID,18.8295,VALID,9,VALID,0.74668,
2001-10-12, 01:25:00,VALID,918.477,VALID,0,VALID,96.4423,VALID,0.0169808,VALID,18.7965,VALID,316,VALID,0.615748,
2001-10-12, 01:26:00,VALID,918.478,VALID,0,VALID,96.8301,VALID,0.0169808,VALID,18.8353,VALID,2,VALID,0.440104,
2001-10-12, 01:27:00,VALID,918.487,VALID,0,VALID,97.0107,VALID,0.0339617,VALID,18.8413,VALID,2,VALID,0.866365,
2001-10-12, 01:28:00,VALID,918.498,VALID,0,VALID,96.9319,VALID,0,VALID,18.8325,VALID,355,VALID,0.392578,
2001-10-12, 01:29:00,VALID,918.475,VALID,0,VALID,97.1163,VALID,0.0169808,VALID,18.8293,VALID,340,VALID,0.412623,
2001-10-12, 01:30:00,VALID,918.452,VALID,0,VALID,97.5867,VALID,0,VALID,18.9364,VALID,341,VALID,0.586143,
2001-10-12, 01:31:00,VALID,918.406,VALID,0,VALID,97.4698,VALID,0,VALID,18.9495,VALID,347,VALID,0.757813,
2001-10-12, 01:32:00,VALID,918.371,VALID,0,VALID,97.7012,VALID,0,VALID,18.9965,VALID,304,VALID,0.720508,
2001-10-12, 01:33:00,VALID,918.348,VALID,0,VALID,97.6351,VALID,0.0169808,VALID,19.0815,VALID,321,VALID,0.410352,
2001-10-12, 01:34:00,VALID,918.291,VALID,0,VALID,97.5372,VALID,0.0169808,VALID,19.0748,VALID,330,VALID,0.359776,
2001-10-12, 01:35:00,VALID,918.254,VALID,0,VALID,97.3159,VALID,0,VALID,19.0619,VALID,346,VALID,0.856086,
2001-10-12, 01:36:00,VALID,918.209,VALID,0,VALID,97.1366,VALID,0,VALID,19.0616,VALID,352,VALID,1.17441,
2001-10-12, 01:37:00,VALID,918.195,VALID,0,VALID,97.176,VALID,0.0339617,VALID,19.0909,VALID,303,VALID,0.673931,
2001-10-12, 01:38:00,VALID,918.175,VALID,0,VALID,97.1506,VALID,0,VALID,19.1265,VALID,337,VALID,0.502878,
2001-10-12, 01:39:00,VALID,918.169,VALID,0,VALID,96.9802,VALID,0,VALID,19.1101,VALID,4,VALID,1.17475,
2001-10-12, 01:40:00,VALID,918.15,VALID,0,VALID,96.7653,VALID,0,VALID,19.1133,VALID,11,VALID,1.20391,
2001-10-12, 01:41:00,VALID,918.147,VALID,0,VALID,96.3775,VALID,0.0169808,VALID,19.0745,VALID,7,VALID,0.67722,
2001-10-12, 01:42:00,VALID,918.136,VALID,0,VALID,96.3507,VALID,0,VALID,19.0418,VALID,351,VALID,0.78726,
2001-10-12, 01:43:00,VALID,918.135,VALID,0,VALID,96.6903,VALID,-0.0169808,VALID,19.0616,VALID,340,VALID,0.582031,
2001-10-12, 01:44:00,VALID,918.121,VALID,0,VALID,96.7106,VALID,0,VALID,19.0875,VALID,350,VALID,0.851172,
2001-10-12, 01:45:00,VALID,918.097,VALID,0,VALID,96.4995,VALID,0.0169808,VALID,19.0517,VALID,2,VALID,0.943051,
2001-10-12, 01:46:00,VALID,918.097,VALID,0,VALID,96.5491,VALID,0,VALID,19.0455,VALID,355,VALID,1.69778,
2001-10-12, 01:47:00,VALID,918.1,VALID,0,VALID,96.7856,VALID,-0.0169808,VALID,19.0907,VALID,352,VALID,1.17475,
2001-10-12, 01:48:00,VALID,918.117,VALID,0,VALID,96.6063,VALID,0,VALID,19.0875,VALID,7,VALID,0.857813,
2001-10-12, 01:49:00,VALID,918.122,VALID,0,VALID,96.6992,VALID,0,VALID,19.1071,VALID,345,VALID,1.00905,
2001-10-12, 01:50:00,VALID,918.119,VALID,0,VALID,96.7793,VALID,0,VALID,19.1295,VALID,338,VALID,0.775641,
2001-10-12, 01:51:00,VALID,918.127,VALID,0,VALID,96.4131,VALID,0,VALID,19.0905,VALID,330,VALID,0.66324,
2001-10-12, 01:52:00,VALID,918.124,VALID,0,VALID,96.6788,VALID,0.0169808,VALID,19.0964,VALID,351,VALID,0.71875,
2001-10-12, 01:53:00,VALID,918.117,VALID,0,VALID,96.5669,VALID,-0.0169808,VALID,19.0879,VALID,358,VALID,0.861637,
2001-10-12, 01:54:00,VALID,918.093,VALID,0,VALID,96.4906,VALID,0,VALID,19.0651,VALID,357,VALID,0.758224,
2001-10-12, 01:55:00,VALID,918.107,VALID,0,VALID,96.4042,VALID,0.0169808,VALID,19.0582,VALID,346,VALID,0.649054,
2001-10-12, 01:56:00,VALID,918.111,VALID,0,VALID,96.4499,VALID,-0.0169808,VALID,19.0711,VALID,334,VALID,0.631641,
2001-10-12, 01:57:00,VALID,918.114,VALID,0,VALID,96.614,VALID,0,VALID,19.1004,VALID,341,VALID,0.24116,
2001-10-12, 01:58:00,VALID,918.103,VALID,0,VALID,96.5186,VALID,0,VALID,19.1168,VALID,356,VALID,0.313902,
2001-10-12, 01:59:00,VALID,918.093,VALID,0,VALID,96.394,VALID,0,VALID,19.0967,VALID,4,VALID,0.242804,
2001-10-12, 02:00:00,VALID,918.084,VALID,0,VALID,96.3622,VALID,0,VALID,19.0711,VALID,4,VALID,0.124414,
2001-10-12, 02:01:00,VALID,918.074,VALID,0,VALID,96.4741,VALID,0.0169808,VALID,19.0616,VALID,351,VALID,0.0622944,
2001-10-12, 02:02:00,VALID,918.077,VALID,0,VALID,96.6178,VALID,0.0169808,VALID,19.0743,VALID,332,VALID,0,
2001-10-12, 02:03:00,VALID,918.075,VALID,0,VALID,96.6521,VALID,0.0169808,VALID,19.0713,VALID,338,VALID,0.00534539,
2001-10-12, 02:04:00,VALID,918.063,VALID,0,VALID,96.736,VALID,-0.0169808,VALID,19.0713,VALID,3,VALID,0.402539,
2001-10-12, 02:05:00,VALID,918.078,VALID,0,VALID,96.8327,VALID,0.0169808,VALID,19.0676,VALID,2,VALID,0.0139803,
2001-10-12, 02:06:00,VALID,918.068,VALID,0,VALID,96.9204,VALID,0.0339617,VALID,19.0644,VALID,1,VALID,0.0380609,
2001-10-12, 02:07:00,VALID,918.048,VALID,0,VALID,96.923,VALID,0,VALID,19.0515,VALID,1,VALID,0.172697,
2001-10-12, 02:08:00,VALID,918.048,VALID,0,VALID,96.942,VALID,-0.0169808,VALID,19.0323,VALID,1,VALID,0,
2001-10-12, 02:09:00,VALID,918.044,VALID,0,VALID,97.0234,VALID,0.0339617,VALID,19.0452,VALID,359,VALID,0,
2001-10-12, 02:10:00,VALID,918.047,VALID,0,VALID,96.8467,VALID,0.0169808,VALID,19.0095,VALID,358,VALID,0,
2001-10-12, 02:11:00,VALID,918.024,VALID,0,VALID,96.8543,VALID,0.0169808,VALID,18.9802,VALID,358,VALID,0,
2001-10-12, 02:12:00,VALID,918.006,VALID,0,VALID,96.9103,VALID,-0.0169808,VALID,18.9744,VALID,358,VALID,0.15918,
2001-10-12, 02:13:00,VALID,917.98,VALID,0,VALID,96.8327,VALID,-0.0169808,VALID,18.9412,VALID,1,VALID,0.560444,
2001-10-12, 02:14:00,VALID,917.971,VALID,0,VALID,96.8963,VALID,0,VALID,18.9262,VALID,10,VALID,0.561498,
2001-10-12, 02:15:00,VALID,917.951,VALID,0,VALID,97.0056,VALID,0,VALID,18.8959,VALID,12,VALID,0.486431,
2001-10-12, 02:16:00,VALID,917.934,VALID,0,VALID,96.8441,VALID,0,VALID,18.8743,VALID,12,VALID,0.675391,
2001-10-12, 02:17:00,VALID,917.916,VALID,0,VALID,96.8416,VALID,-0.0339617,VALID,18.8517,VALID,10,VALID,0.375,
2001-10-12, 02:18:00,VALID,917.9,VALID,0,VALID,96.9688,VALID,-0.0509425,VALID,18.8651,VALID,7,VALID,0.299342,
2001-10-12, 02:19:00,VALID,917.876,VALID,0,VALID,97.0629,VALID,-0.0509425,VALID,18.8577,VALID,7,VALID,0.271176,
2001-10-12, 02:20:00,VALID,917.871,VALID,0,VALID,97.1175,VALID,-0.0169808,VALID,18.8743,VALID,6,VALID,0.540234,
2001-10-12, 02:21:00,VALID,917.878,VALID,0,VALID,97.1633,VALID,-0.0339617,VALID,18.877,VALID,10,VALID,0.525288,
2001-10-12, 02:22:00,VALID,917.887,VALID,0,VALID,97.0387,VALID,-0.0169808,VALID,18.8607,VALID,9,VALID,0.911058,
2001-10-12, 02:23:00,VALID,917.896,VALID,0,VALID,97.0743,VALID,-0.0169808,VALID,18.8579,VALID,15,VALID,0.655428,
2001-10-12, 02:24:00,VALID,917.922,VALID,0,VALID,97.2091,VALID,-0.0169808,VALID,18.877,VALID,23,VALID,0.529688,
2001-10-12, 02:25:00,VALID,917.943,VALID,0,VALID,97.2841,VALID,0,VALID,18.9029,VALID,16,VALID,0.782484,
2001-10-12, 02:26:00,VALID,917.937,VALID,0,VALID,97.3235,VALID,-0.0339617,VALID,18.916,VALID,10,VALID,0.646176,
2001-10-12, 02:27:00,VALID,917.951,VALID,0,VALID,97.41,VALID,-0.0169808,VALID,18.9583,VALID,7,VALID,0.560444,
2001-10-12, 02:28:00,VALID,917.953,VALID,0,VALID,97.3935,VALID,-0.0169808,VALID,18.9802,VALID,296,VALID,0.0658203,
2001-10-12, 02:29:00,VALID,917.958,VALID,0,VALID,97.3388,VALID,-0.0169808,VALID,19.0226,VALID,314,VALID,0,
2001-10-12, 02:30:00,VALID,917.98,VALID,0,VALID,97.1519,VALID,-0.0169808,VALID,19.0226,VALID,341,VALID,0.0514824,
2001-10-12, 02:31:00,VALID,917.982,VALID,0,VALID,97.1074,VALID,0,VALID,19.0348,VALID,318,VALID,0.0701069,
2001-10-12, 02:32:00,VALID,918,VALID,0,VALID,96.9382,VALID,-0.0339617,VALID,19.0251,VALID,318,VALID,0.000976563,
2001-10-12, 02:33:00,VALID,918.01,VALID,0,VALID,96.7971,VALID,-0.0169808,VALID,19.0355,VALID,332,VALID,0.000205592,
2001-10-12, 02:34:00,VALID,918.009,VALID,0,VALID,96.7322,VALID,0.0169808,VALID,19.0226,VALID,353,VALID,0,
2001-10-12, 02:35:00,VALID,918.017,VALID,0,VALID,96.8479,VALID,-0.0509425,VALID,19.0229,VALID,353,VALID,0.138158,
2001-10-12, 02:36:00,VALID,918.03,VALID,0,VALID,96.9509,VALID,-0.0339617,VALID,19.0318,VALID,353,VALID,0,
2001-10-12, 02:37:00,VALID,918.038,VALID,0,VALID,97.0489,VALID,-0.0679233,VALID,19.0653,VALID,353,VALID,0.0170641,
2001-10-12, 02:38:00,VALID,918.042,VALID,0,VALID,97.1023,VALID,-0.0339617,VALID,19.0678,VALID,10,VALID,0.688902,
2001-10-12, 02:39:00,VALID,918.017,VALID,0,VALID,96.9026,VALID,0,VALID,19.0768,VALID,4,VALID,0.488076,
2001-10-12, 02:40:00,VALID,918.024,VALID,0,VALID,96.8797,VALID,0,VALID,19.1061,VALID,7,VALID,0.764258,
2001-10-12, 02:41:00,VALID,918.025,VALID,0,VALID,96.7424,VALID,-0.0509425,VALID,19.1779,VALID,15,VALID,0.559005,
2001-10-12, 02:42:00,VALID,918.002,VALID,0,VALID,96.4627,VALID,-0.0339617,VALID,19.2229,VALID,17,VALID,0.524054,
2001-10-12, 02:43:00,VALID,918.014,VALID,0,VALID,96.0023,VALID,-0.0169808,VALID,19.2254,VALID,324,VALID,0.240132,
2001-10-12, 02:44:00,VALID,918.015,VALID,0,VALID,95.8319,VALID,0,VALID,19.245,VALID,356,VALID,0.629102,
2001-10-12, 02:45:00,VALID,917.992,VALID,0,VALID,95.5547,VALID,0,VALID,19.287,VALID,1,VALID,1.32011,
2001-10-12, 02:46:00,VALID,917.981,VALID,0,VALID,95.2483,VALID,-0.0169808,VALID,19.3618,VALID,345,VALID,1.04928,
2001-10-12, 02:47:00,VALID,917.954,VALID,0,VALID,94.8147,VALID,0,VALID,19.4227,VALID,1,VALID,0.56949,
2001-10-12, 02:48:00,VALID,917.95,VALID,0,VALID,94.3772,VALID,0,VALID,19.4291,VALID,354,VALID,0.636328,
2001-10-12, 02:49:00,VALID,917.929,VALID,0,VALID,94.3086,VALID,-0.0509425,VALID,19.4453,VALID,3,VALID,0.644737,
2001-10-12, 02:50:00,VALID,917.904,VALID,0,VALID,94.0428,VALID,0,VALID,19.4679,VALID,7,VALID,1.43503,
2001-10-12, 02:51:00,VALID,917.902,VALID,0,VALID,93.5583,VALID,-0.0339617,VALID,19.5004,VALID,11,VALID,1.14165,
2001-10-12, 02:52:00,VALID,917.913,VALID,0,VALID,93.187,VALID,-0.0509425,VALID,19.4974,VALID,14,VALID,1.25586,
2001-10-12, 02:53:00,VALID,917.915,VALID,0,VALID,93.2277,VALID,-0.0339617,VALID,19.488,VALID,16,VALID,0.863076,
2001-10-12, 02:54:00,VALID,917.913,VALID,0,VALID,93.0853,VALID,-0.0849042,VALID,19.449,VALID,17,VALID,0.755208,
2001-10-12, 02:55:00,VALID,917.943,VALID,0,VALID,93.0293,VALID,-0.0339617,VALID,19.3943,VALID,18,VALID,0.794408,
2001-10-12, 02:56:00,VALID,917.964,VALID,0,VALID,93.5214,VALID,-0.0509425,VALID,19.3255,VALID,12,VALID,0.815234,
2001-10-12, 02:57:00,VALID,917.966,VALID,0,VALID,93.955,VALID,0,VALID,19.287,VALID,14,VALID,0.797286,
2001-10-12, 02:58:00,VALID,917.976,VALID,0,VALID,94.1343,VALID,0,VALID,19.2711,VALID,3,VALID,0.723067,
2001-10-12, 02:59:00,VALID,917.982,VALID,0,VALID,94.2437,VALID,-0.0339617,VALID,19.2515,VALID,9,VALID,1.42496,
2001-10-12, 03:00:00,VALID,917.995,VALID,0,VALID,94.3264,VALID,0.0169808,VALID,19.2584,VALID,1,VALID,1.13926,
2001-10-12, 03:01:00,VALID,917.995,VALID,0,VALID,94.278,VALID,-0.0169808,VALID,19.2905,VALID,9,VALID,0.807155,
2001-10-12, 03:02:00,VALID,918.003,VALID,0,VALID,94.0682,VALID,0.0169808,VALID,19.29,VALID,7,VALID,0.81871,
2001-10-12, 03:03:00,VALID,918.003,VALID,0,VALID,94.0809,VALID,-0.0339617,VALID,19.2843,VALID,12,VALID,0.899465,
2001-10-12, 03:04:00,VALID,917.975,VALID,0,VALID,93.777,VALID,0,VALID,19.2321,VALID,8,VALID,0.923633,
2001-10-12, 03:05:00,VALID,917.976,VALID,0,VALID,94.5133,VALID,-0.0169808,VALID,19.2358,VALID,4,VALID,1.00555,
2001-10-12, 03:06:00,VALID,917.983,VALID,0,VALID,94.5413,VALID,0,VALID,19.2708,VALID,3,VALID,1.02076,
2001-10-12, 03:07:00,VALID,917.98,VALID,0,VALID,94.526,VALID,-0.0169808,VALID,19.2935,VALID,354,VALID,1.19243,
2001-10-12, 03:08:00,VALID,917.98,VALID,0,VALID,94.2297,VALID,-0.0169808,VALID,19.3168,VALID,2,VALID,1.07676,
2001-10-12, 03:09:00,VALID,917.971,VALID,0,VALID,94.2997,VALID,-0.0339617,VALID,19.3128,VALID,8,VALID,1.13877,
2001-10-12, 03:10:00,VALID,917.965,VALID,0,VALID,94.2005,VALID,-0.0169808,VALID,19.3195,VALID,12,VALID,0.838742,
2001-10-12, 03:11:00,VALID,917.962,VALID,0,VALID,94.0186,VALID,-0.0679233,VALID,19.2838,VALID,12,VALID,0.905839,
2001-10-12, 03:12:00,VALID,917.963,VALID,0,VALID,93.9856,VALID,-0.0169808,VALID,19.2612,VALID,9,VALID,1.06445,
2001-10-12, 03:13:00,VALID,917.966,VALID,0,VALID,94.2806,VALID,-0.0339617,VALID,19.2577,VALID,8,VALID,1.23047,
2001-10-12, 03:14:00,VALID,917.968,VALID,0,VALID,94.4726,VALID,0,VALID,19.3163,VALID,10,VALID,1.12726,
2001-10-12, 03:15:00,VALID,917.981,VALID,0,VALID,93.9818,VALID,0,VALID,19.3352,VALID,19,VALID,0.729852,
2001-10-12, 03:16:00,VALID,917.964,VALID,0,VALID,93.8622,VALID,-0.0169808,VALID,19.3126,VALID,13,VALID,0.692773,
2001-10-12, 03:17:00,VALID,917.97,VALID,0,VALID,93.8546,VALID,-0.0169808,VALID,19.3036,VALID,15,VALID,0.846217,
2001-10-12, 03:18:00,VALID,917.986,VALID,0,VALID,94.1305,VALID,0,VALID,19.2937,VALID,11,VALID,1.30068,
2001-10-12, 03:19:00,VALID,917.975,VALID,0,VALID,93.9805,VALID,0,VALID,19.3064,VALID,15,VALID,1.04194,
2001-10-12, 03:20:00,VALID,917.976,VALID,0,VALID,93.8037,VALID,0,VALID,19.2902,VALID,20,VALID,0.876172,
2001-10-12, 03:21:00,VALID,917.95,VALID,0,VALID,93.7872,VALID,0,VALID,19.2875,VALID,16,VALID,0.542352,
2001-10-12, 03:22:00,VALID,917.927,VALID,0,VALID,93.8508,VALID,-0.0169808,VALID,19.2579,VALID,5,VALID,0.700658,
2001-10-12, 03:23:00,VALID,917.904,VALID,0,VALID,93.8559,VALID,0,VALID,19.2457,VALID,4,VALID,0.257196,
2001-10-12, 03:24:00,VALID,917.892,VALID,0,VALID,93.8699,VALID,0,VALID,19.2197,VALID,7,VALID,0.321484,
2001-10-12, 03:25:00,VALID,917.878,VALID,0,VALID,94.1674,VALID,0,VALID,19.2129,VALID,11,VALID,0.601357,
2001-10-12, 03:26:00,VALID,917.866,VALID,0,VALID,94.2246,VALID,-0.0169808,VALID,19.207,VALID,359,VALID,0.566707,
2001-10-12, 03:27:00,VALID,917.846,VALID,0,VALID,94.1216,VALID,-0.0169808,VALID,19.1647,VALID,2,VALID,0.666324,
2001-10-12, 03:28:00,VALID,917.829,VALID,0,VALID,94.5298,VALID,-0.0169808,VALID,19.1613,VALID,13,VALID,0.79668,
2001-10-12, 03:29:00,VALID,917.812,VALID,0,VALID,94.3759,VALID,-0.0339617,VALID,19.1458,VALID,12,VALID,0.678865,
2001-10-12, 03:30:00,VALID,917.826,VALID,0,VALID,94.0809,VALID,-0.0339617,VALID,19.0644,VALID,9,VALID,0.392681,
2001-10-12, 03:31:00,VALID,917.839,VALID,0,VALID,94.5196,VALID,-0.0849042,VALID,19.0494,VALID,360,VALID,0.49486,
2001-10-12, 03:32:00,VALID,917.852,VALID,0,VALID,94.9774,VALID,0.0169808,VALID,19.0708,VALID,18,VALID,0.327539,
2001-10-12, 03:33:00,VALID,917.863,VALID,0,VALID,94.9113,VALID,0.0679233,VALID,19.0768,VALID,31,VALID,0.337788,
2001-10-12, 03:34:00,VALID,917.862,VALID,0,VALID,94.7333,VALID,0.101885,VALID,19.0403,VALID,23,VALID,0.597957,
2001-10-12, 03:35:00,VALID,917.872,VALID,0,VALID,94.7295,VALID,0.101885,VALID,19.0048,VALID,21,VALID,0.812089,
2001-10-12, 03:36:00,VALID,917.883,VALID,0,VALID,95.0105,VALID,0.0509425,VALID,19.0085,VALID,30,VALID,0.578516,
2001-10-12, 03:37:00,VALID,917.9,VALID,0,VALID,95.0321,VALID,0.0509425,VALID,18.9983,VALID,37,VALID,0.167558,
2001-10-12, 03:38:00,VALID,917.898,VALID,0,VALID,95.1402,VALID,0.0169808,VALID,19.0184,VALID,35,VALID,0,